Weather History for Birmingham, AL

Change the Weather History Date:

Tuesday, October 9, 2012

  Actual Average Record
Temperature  
Mean Temperature 58 °F 66 °F  
Max Temperature 71 °F 77 °F 91 °F (1941)
Min Temperature 45 °F 55 °F 34 °F (2000)
Degree Days  
Heating Degree Days 7 2  
Month to date heating degree days 32 16  
Since 1 July heating degree days 37 25  
Cooling Degree Days 0 4  
Month to date cooling degree days 19 40  
Year to date cooling degree days 2215 1990  
Growing Degree Days 8 (Base 50)    
Moisture  
Dew Point 47 °F    
Average Humidity 70    
Maximum Humidity 100    
Minimum Humidity 40    
Precipitation  
Precipitation 0.00 in 0.10 in 3.92 in (1934)
Month to date precipitation 0.58 1.02  
Year to date precipitation 40.16 42.00  
Snow  
Snow 0.00 in 0.00 in - ()
Month to date snowfall 0.0 0.0  
Since 1 July snowfall 0.0 0.0  
Since 1 September snowfall 0.0 0.0  
Snow Depth 0.00 in    
Sea Level Pressure  
Sea Level Pressure 30.12 in    
Wind  
Wind Speed 1 mph (North)    
Max Wind Speed 8 mph    
Max Gust Speed 10 mph    
Visibility 10 miles    
Events      
T = Trace of Precipitation, MM = Missing Value Source: NWS Daily Summary

Daily Weather History Graph

Daily Weather History Graph

Search for Another Location

Airport:

Trip Planner

Search our weather history database for the weather conditions in past years. The results will help you decide how hot, cold, wet, or windy it might be!

Date:

Astronomy

Oct. 09, 2012 Rise Set
Actual Time 6:47 AM CDT 6:20 PM CDT
Civil Twilight 6:22 AM CDT 6:45 PM CDT
Nautical Twilight 5:53 AM CDT 7:13 PM CDT
Astronomical Twilight 5:24 AM CDT 7:42 PM CDT
Moon 12:40 AM CDT (10/9) 2:31 PM CDT (10/9)
Length of Visible Light 12h 22m
Length of Day
11h 32m
Last Quarter, 36% of the Moon is Illuminated
Oct 9
Last Quarter
Oct 15
New
Oct 21
First Quarter
Oct 29
Full
Nov 6
Last Quarter

Hourly Weather History & Observations

Time (CDT) Temp. Dew Point Humidity Pressure Visibility Wind Dir Wind Speed Gust Speed Precip Events Conditions
12:53 AM 51.1 °F 48.0 °F 89% 30.14 in 10.0 mi Calm Calm - N/A   Partly Cloudy
1:53 AM 51.1 °F 48.9 °F 92% 30.14 in 10.0 mi ENE 3.5 mph - N/A   Partly Cloudy
2:53 AM 51.1 °F 48.0 °F 89% 30.14 in 10.0 mi Calm Calm - N/A   Partly Cloudy
3:53 AM 50.0 °F 48.0 °F 93% 30.15 in 10.0 mi ENE 3.5 mph - N/A   Partly Cloudy
4:53 AM 46.9 °F 45.0 °F 93% 30.14 in 10.0 mi Calm Calm - N/A   Partly Cloudy
6:53 AM 46.0 °F 44.1 °F 93% 30.15 in 10.0 mi Calm Calm - N/A   Partly Cloudy
7:53 AM 50.0 °F 46.0 °F 86% 30.17 in 10.0 mi Calm Calm - N/A   Clear
8:53 AM 54.0 °F 48.0 °F 80% 30.18 in 10.0 mi Calm Calm - N/A   Clear
9:53 AM 59.0 °F 46.0 °F 62% 30.17 in 10.0 mi Calm Calm - N/A   Partly Cloudy
10:53 AM 61.0 °F 45.0 °F 56% 30.17 in 10.0 mi Variable 3.5 mph - N/A   Partly Cloudy
11:53 AM 63.0 °F 45.0 °F 52% 30.15 in 10.0 mi Calm Calm - N/A   Partly Cloudy
12:53 PM 64.9 °F 46.0 °F 50% 30.12 in 10.0 mi Calm Calm - N/A   Partly Cloudy
1:53 PM 66.0 °F 46.0 °F 48% 30.10 in 10.0 mi Variable 5.8 mph - N/A   Partly Cloudy
2:53 PM 69.1 °F 46.0 °F 44% 30.07 in 10.0 mi Calm Calm - N/A   Clear
3:53 PM 69.1 °F 45.0 °F 42% 30.06 in 10.0 mi Calm Calm - N/A   Clear
4:53 PM 70.0 °F 48.0 °F 46% 30.06 in 10.0 mi NW 3.5 mph - N/A   Clear
5:53 PM 66.9 °F 48.9 °F 52% 30.06 in 10.0 mi WNW 6.9 mph - N/A   Clear
6:53 PM 61.0 °F 51.1 °F 70% 30.06 in 10.0 mi Calm Calm - N/A   Clear
7:53 PM 57.0 °F 52.0 °F 83% 30.08 in 10.0 mi Calm Calm - N/A   Clear
8:53 PM 54.0 °F 50.0 °F 86% 30.09 in 10.0 mi Calm Calm - N/A   Clear
9:53 PM 52.0 °F 48.9 °F 89% 30.09 in 10.0 mi Calm Calm - N/A   Clear
10:53 PM 52.0 °F 48.9 °F 89% 30.09 in 10.0 mi Calm Calm - N/A   Clear
11:53 PM 51.1 °F 48.0 °F 89% 30.09 in 10.0 mi Calm Calm - N/A   Clear